TimeCET,TemperatureF,Dew PointF,Humidity,Sea Level PressureIn,VisibilityMPH,Wind Direction,Wind SpeedMPH,Gust SpeedMPH,PrecipitationIn,Events,Conditions,WindDirDegrees,DateUTC
7:00 AM,28.4,28.4,100,29.98,-9999.0,NNE,5.8,-,N/A,,Clear,20,2013-03-01 06:00:00
7:30 AM,28.4,28.4,100,29.98,-9999.0,North,4.6,-,N/A,,Clear,350,2013-03-01 06:30:00
8:00 AM,28.4,28.4,100,29.98,-9999.0,North,5.8,-,N/A,,Clear,10,2013-03-01 07:00:00
8:30 AM,28.4,28.4,100,29.98,-9999.0,North,10.4,-,N/A,,Clear,10,2013-03-01 07:30:00
9:00 AM,30.2,30.2,100,30.01,-9999.0,NNE,6.9,-,N/A,,Clear,20,2013-03-01 08:00:00
9:30 AM,33.8,32.0,93,30.01,-9999.0,NE,11.5,-,N/A,,Clear,40,2013-03-01 08:30:00
10:00 AM,35.6,32.0,87,30.01,-9999.0,NE,13.8,-,N/A,,Clear,40,2013-03-01 09:00:00
11:30 AM,39.2,33.8,81,30.01,6.2,NE,18.4,-,N/A,,Partly Cloudy,40,2013-03-01 10:30:00
12:00 PM,42.8,33.8,70,30.01,6.2,NE,16.1,-,N/A,,Partly Cloudy,50,2013-03-01 11:00:00
12:30 PM,41.0,32.0,70,30.04,6.2,ENE,20.7,-,N/A,,Scattered Clouds,70,2013-03-01 11:30:00
1:00 PM,42.8,33.8,70,30.01,6.2,ENE,16.1,-,N/A,,Scattered Clouds,60,2013-03-01 12:00:00
1:30 PM,42.8,33.8,70,30.01,6.2,NE,19.6,-,N/A,,Scattered Clouds,40,2013-03-01 12:30:00
2:00 PM,42.8,33.8,70,30.01,6.2,ENE,16.1,-,N/A,,Scattered Clouds,60,2013-03-01 13:00:00
2:30 PM,42.8,32.0,66,30.01,6.2,ENE,16.1,-,N/A,,Scattered Clouds,60,2013-03-01 13:30:00
3:00 PM,42.8,33.8,70,30.01,6.2,NE,16.1,-,N/A,,Scattered Clouds,50,2013-03-01 14:00:00
3:30 PM,42.8,33.8,70,30.01,6.2,ENE,13.8,-,N/A,,Scattered Clouds,60,2013-03-01 14:30:00
4:00 PM,44.6,30.2,57,30.01,6.2,ENE,15.0,-,N/A,,Scattered Clouds,60,2013-03-01 15:00:00
4:30 PM,42.8,30.2,61,30.01,6.2,ENE,18.4,-,N/A,,Mostly Cloudy,70,2013-03-01 15:30:00
5:00 PM,42.8,33.8,70,30.01,6.2,NE,15.0,-,N/A,,Mostly Cloudy,50,2013-03-01 16:00:00
5:30 PM,42.8,33.8,70,30.04,6.2,NE,15.0,-,N/A,,Scattered Clouds,40,2013-03-01 16:30:00
6:30 PM,41.0,33.8,76,30.04,6.2,NE,16.1,-,N/A,,Scattered Clouds,50,2013-03-01 17:30:00
7:00 PM,39.2,32.0,75,30.04,6.2,NE,11.5,-,N/A,,Scattered Clouds,50,2013-03-01 18:00:00
7:30 PM,37.4,32.0,81,30.06,6.2,NE,8.1,-,N/A,,Scattered Clouds,40,2013-03-01 18:30:00
8:30 PM,35.6,32.0,87,30.06,6.2,NNE,10.4,-,N/A,,Scattered Clouds,20,2013-03-01 19:30:00
9:00 PM,35.6,32.0,87,30.06,6.2,NNE,12.7,-,N/A,,Scattered Clouds,30,2013-03-01 20:00:00
9:30 PM,35.6,32.0,87,30.06,6.2,NNE,11.5,-,N/A,,Partly Cloudy,30,2013-03-01 20:30:00